Location: Huntsville
(41.2590°N, 111.7678°W)
Time: 17:19:06
(UTC+00:00)

S-56A Canister/Altair - All Passes

Search period start: 18 June 2021 00:00
Search period end: 28 June 2021 00:00
Orbit: 632 x 2500 km, 38.9° (Epoch: 17 June)

Date Brightness Start Highest point End Pass type
(mag) Time Alt. Az. Time Alt. Az. Time Alt. Az.
18 Jun - 11:22:39 10° SSW 11:26:03 22° SSE 11:29:37 10° E visible
18 Jun - 13:24:36 10° WSW 13:29:04 61° SSE 13:34:43 10° E daylight
18 Jun - 15:27:35 10° W 15:32:43 65° S 15:40:08 10° ESE daylight
18 Jun - 17:30:54 10° W 17:36:43 36° SSW 17:45:02 10° SE daylight
18 Jun - 19:37:12 10° WSW 19:41:00 13° SW 19:45:23 10° S daylight
19 Jun - 10:50:30 10° SSW 10:53:37 18° SSE 10:56:44 10° ESE visible
19 Jun - 12:52:14 10° WSW 12:56:34 56° SSE 13:01:47 10° E daylight
19 Jun - 14:55:14 10° W 15:00:06 66° S 15:06:55 10° ESE daylight
19 Jun - 16:58:29 10° W 17:03:59 38° SSW 17:11:51 10° SE daylight
19 Jun - 19:04:08 10° WSW 19:08:09 15° SW 19:12:54 10° S daylight
20 Jun - 10:18:24 10° S 10:21:09 16° SSE 10:23:49 10° ESE visible
20 Jun - 12:19:50 10° WSW 12:24:06 50° SSE 12:28:56 10° E daylight
20 Jun - 14:22:53 10° W 14:27:33 67° S 14:33:48 10° ESE daylight
20 Jun - 16:26:05 10° W 16:31:17 40° SSW 16:38:40 10° SE daylight
20 Jun - 18:31:13 10° WSW 18:35:20 16° SSW 18:40:18 10° S daylight
21 Jun - 09:46:21 10° S 09:48:40 13° SSE 09:50:53 10° ESE visible
21 Jun - 11:47:23 10° SW 11:51:40 45° SSE 11:56:10 10° E daylight
21 Jun - 13:50:30 10° W 13:55:01 68° S 14:00:46 10° E daylight
21 Jun - 15:53:42 10° W 15:58:39 42° SSW 16:05:32 10° SE daylight
21 Jun - 17:58:27 10° WSW 18:02:34 17° SSW 18:07:37 10° S daylight
22 Jun - 09:14:25 10° S 09:16:10 12° SSE 09:17:49 10° SE visible
22 Jun - 11:14:55 10° SW 11:19:13 41° SSE 11:23:29 10° E visible
22 Jun - 13:18:05 10° W 13:22:30 68° S 13:27:50 10° E daylight
22 Jun - 15:21:20 10° W 15:26:02 44° SSW 15:32:28 10° SE daylight
22 Jun - 17:25:46 10° WSW 17:29:50 18° SSW 17:34:53 10° S daylight
23 Jun - 08:42:56 10° SSE 08:43:37 10° SSE 08:44:17 10° SE visible
23 Jun - 10:42:24 10° SW 10:46:46 36° SSE 10:50:51 10° E visible
23 Jun - 12:45:38 10° W 12:50:01 67° S 12:55:00 10° E daylight
23 Jun - 14:48:57 10° W 14:53:28 46° SSW 14:59:28 10° SE daylight
23 Jun - 16:53:09 10° WSW 16:57:09 19° SSW 17:02:08 10° SSE daylight
24 Jun - 10:09:49 10° SW 10:14:18 33° SSE 10:18:17 10° E visible
24 Jun - 12:13:07 10° WSW 12:17:33 65° S 12:22:15 10° E daylight
24 Jun - 14:16:33 10° W 14:20:57 49° SSW 14:26:32 10° ESE daylight
24 Jun - 16:20:35 10° WSW 16:24:30 20° SSW 16:29:23 10° SSE daylight
25 Jun - 09:37:12 10° SW 09:41:49 30° SSE 09:45:46 10° E visible
25 Jun - 11:40:33 10° WSW 11:45:05 63° S 11:49:36 10° E daylight
25 Jun - 13:44:07 10° W 13:48:27 52° SSW 13:53:40 10° ESE daylight
25 Jun - 15:48:03 10° WSW 15:51:53 21° SSW 15:56:39 10° SSE daylight
26 Jun - 09:04:31 10° SW 09:09:19 28° SSE 09:13:16 10° E visible
26 Jun - 11:07:55 10° WSW 11:12:37 61° S 11:17:01 10° E visible
26 Jun - 13:11:39 10° W 13:15:58 55° SSW 13:20:53 10° ESE daylight
26 Jun - 15:15:31 10° WSW 15:19:19 23° SSW 15:23:57 10° SSE daylight
27 Jun - 08:31:48 10° SSW 08:36:47 26° SSE 08:40:47 10° E visible
27 Jun - 10:35:12 10° WSW 10:40:09 58° S 10:44:30 10° E visible
27 Jun - 12:39:08 10° W 12:43:30 58° S 12:48:11 10° ESE daylight
27 Jun - 14:43:00 10° W 14:46:47 24° SSW 14:51:18 10° SSE daylight
